Weather History for Bastia, France

Change the Weather History Date:

Friday, January 31, 2014

  Actual Average Record
Temperature  
Mean Temperature 50 °F -  
Max Temperature 56 °F 55 °F 62 °F (2013)
Min Temperature 43 °F 39 °F 32 °F (2005)
Degree Days  
Heating Degree Days 16    
Moisture  
Dew Point 41 °F    
Average Humidity 71    
Maximum Humidity 87    
Minimum Humidity 7    
Precipitation  
Precipitation 0.00 in - - ()
Sea Level Pressure  
Sea Level Pressure 29.77 in    
Wind  
Wind Speed 5 mph ()    
Max Wind Speed 10 mph    
Max Gust Speed -    
Visibility 7.5 miles    
Events      
Averages and records for this station are not official NWS values.
T = Trace of Precipitation, MM = Missing Value Source: Averaged Metar Reports

Daily Weather History Graph

Daily Weather History Graph

Search for Another Location

Airport:

Trip Planner

Search our weather history database for the weather conditions in past years. The results will help you decide how hot, cold, wet, or windy it might be!

Date:

Astronomy

Jan. 31, 2014 Rise Set
Actual Time 7:37 AM CET 5:34 PM CET
Civil Twilight 7:07 AM CET 6:04 PM CET
Nautical Twilight 6:33 AM CET 6:37 PM CET
Astronomical Twilight 6:00 AM CET 7:11 PM CET
Moon 7:33 AM CET (1/31) 6:41 PM CET (1/31)
Length of Visible Light 10h 56m
Length of Day
9h 56m
New Moon, 0% of the Moon is Illuminated
Jan 31
New Moon
Feb 6
First Quarter
Feb 15
Full
Feb 22
Last Quarter
Mar 1
New

Hourly Weather History & Observations

Time (CET) Temp. Windchill Dew Point Humidity Pressure Visibility Wind Dir Wind Speed Gust Speed Precip Events Conditions
12:00 AM 49 °F - 46 °F 85% 29.61 in 37 mi SW 3.5 mph - -   Clear
12:00 AM 50.0 °F - 46.4 °F 87% 29.59 in 6.2 mi SW 3.5 mph - N/A   Mostly Cloudy
12:30 AM 50.0 °F - 46.4 °F 87% 29.59 in 6.2 mi SSW 8.1 mph - N/A   Partly Cloudy
1:00 AM 50 °F - 45 °F 77% 29.63 in 37 mi SSW 9.2 mph - -   Clear
1:00 AM 50.0 °F - 44.6 °F 82% 29.62 in 6.2 mi SSW 9.2 mph - N/A   Mostly Cloudy
1:30 AM 48.2 °F - 44.6 °F 87% 29.62 in 6.2 mi SW 5.8 mph - N/A   Unknown
2:00 AM 48 °F - 43 °F 78% 29.65 in 37 mi WSW 6.9 mph - -   Clear
2:00 AM 48.2 °F - 42.8 °F 82% 29.62 in 6.2 mi WSW 6.9 mph - N/A   Unknown
2:30 AM 48.2 °F - 42.8 °F 82% 29.62 in 6.2 mi SW 8.1 mph - N/A   Unknown
3:00 AM 49 °F - 42 °F 70% 29.66 in 37 mi SW 6.9 mph - -   Clear
3:00 AM 48.2 °F - 42.8 °F 82% 29.65 in 6.2 mi SW 6.9 mph - N/A   Unknown
3:30 AM 46.4 °F 45.2 °F 41.0 °F 81% 29.65 in 6.2 mi Variable 3.5 mph - N/A   Unknown
4:00 AM 44 °F - 40 °F 79% 29.67 in 37 mi West 3.5 mph - -   Clear
4:00 AM 44.6 °F 43.1 °F 39.2 °F 81% 29.65 in 6.2 mi Variable 3.5 mph - N/A   Unknown
4:30 AM 44.6 °F - 41.0 °F 87% 29.65 in 6.2 mi Variable 2.3 mph - N/A   Unknown
5:00 AM 47 °F - 41 °F 72% 29.70 in 37 mi West 5.8 mph - -   Clear
5:00 AM 46.4 °F 43.5 °F 41.0 °F 81% 29.68 in 6.2 mi West 5.8 mph - N/A   Unknown
5:30 AM 44.6 °F - 39.2 °F 81% 29.68 in 6.2 mi Variable 2.3 mph - N/A   Unknown
6:00 AM 45 °F - 39 °F 71% 29.71 in 37 mi SW 2.3 mph - -   Clear
6:00 AM 44.6 °F - 39.2 °F 81% 29.68 in 6.2 mi Variable 2.3 mph - N/A   Unknown
6:30 AM 44.6 °F 42.2 °F 39.2 °F 81% 29.71 in 6.2 mi SSW 4.6 mph - N/A   Unknown
7:00 AM 45 °F - 38 °F 68% 29.73 in 37 mi SW 4.6 mph - -   Clear
7:00 AM 44.6 °F 42.2 °F 37.4 °F 76% 29.71 in 6.2 mi SW 4.6 mph - N/A   Unknown
7:30 AM 46.4 °F 42.9 °F 37.4 °F 71% 29.74 in 6.2 mi SSW 6.9 mph - N/A   Unknown
8:00 AM 48 °F - 39 °F 61% 29.77 in 11 mi SW 5.8 mph - -   Scattered Clouds
8:00 AM 46.4 °F - 37.4 °F 71% 29.74 in 6.2 mi Variable 2.3 mph - N/A   Partly Cloudy
8:30 AM 46.4 °F 42.9 °F 39.2 °F 76% 29.74 in 6.2 mi WSW 6.9 mph - N/A   Partly Cloudy
9:00 AM 46 °F - 38 °F 65% 29.78 in 11 mi SSW 2.3 mph - -   Scattered Clouds
9:00 AM 46.4 °F 45.2 °F 37.4 °F 71% 29.77 in 6.2 mi SSW 3.5 mph - N/A   Partly Cloudy
9:36 AM 46.4 °F - 39.2 °F 76% 29.80 in 6.2 mi Calm Calm - N/A   Partly Cloudy
10:00 AM 48 °F - 41 °F 68% 29.82 in 11 mi SW 3.5 mph - -   Mostly Cloudy
10:00 AM 48.2 °F - 41.0 °F 76% 29.80 in 6.2 mi SW 3.5 mph - N/A   Scattered Clouds
10:30 AM 50.0 °F - 42.8 °F 76% 29.80 in 6.2 mi WSW 3.5 mph - N/A   Scattered Clouds
11:00 AM 51 °F - 42 °F 63% 29.84 in 11 mi SW 5.8 mph - -   Mostly Cloudy
11:00 AM 51.8 °F - 42.8 °F 71% 29.83 in 6.2 mi SW 4.6 mph - N/A   Scattered Clouds
11:30 AM 51.8 °F - 42.8 °F 71% 29.83 in 6.2 mi SW 8.1 mph - N/A   Scattered Clouds
12:00 PM 53 °F - 43 °F 60% 29.83 in 11 mi WSW 6.9 mph - -   Mostly Cloudy
12:00 PM 53.6 °F - 42.8 °F 67% 29.83 in 6.2 mi WSW 6.9 mph - N/A   Mostly Cloudy
1:00 PM 54 °F - 43 °F 57% 29.83 in 11 mi WSW 8.1 mph - -   Mostly Cloudy
1:05 PM 55.4 °F - 42.8 °F 63% 29.80 in 6.2 mi WSW 5.8 mph - N/A   Mostly Cloudy
1:30 PM 55.4 °F - 42.8 °F 63% 29.83 in 6.2 mi WSW 6.9 mph - N/A   Mostly Cloudy
2:00 PM 55 °F - 42 °F 52% 29.83 in 11 mi West 2.3 mph - -   Mostly Cloudy
2:16 PM 55.4 °F - 44.6 °F 67% 29.83 in 6.2 mi Variable 2.3 mph - N/A   Mostly Cloudy
2:30 PM 55.4 °F - 44.6 °F 67% 29.80 in 6.2 mi Variable 3.5 mph - N/A   Mostly Cloudy
3:00 PM 55 °F - 44 °F 56% 29.82 in 11 mi NW 8.1 mph - -   Mostly Cloudy
3:08 PM 55.4 °F - 42.8 °F 63% 29.80 in 6.2 mi WNW 8.1 mph - N/A   Mostly Cloudy
3:30 PM 53.6 °F - 42.8 °F 67% 29.83 in 6.2 mi NW 5.8 mph - N/A   Mostly Cloudy
4:00 PM 53 °F - 8 °F 7% 29.84 in 11 mi WNW 6.9 mph - -   Mostly Cloudy
4:16 PM 53.6 °F - 42.8 °F 67% 29.83 in 6.2 mi WNW 4.6 mph - N/A   Mostly Cloudy
4:30 PM 53.6 °F - 42.8 °F 67% 29.83 in 6.2 mi NW 4.6 mph - N/A   Mostly Cloudy
5:00 PM 52 °F - 41 °F 56% 29.85 in 11 mi NW 10.4 mph - -   Mostly Cloudy
5:00 PM 51.8 °F - 41.0 °F 67% 29.83 in 6.2 mi NW 10.4 mph - N/A   Mostly Cloudy
5:30 PM 51.8 °F - 41.0 °F 67% 29.83 in 6.2 mi WNW 9.2 mph - N/A   Mostly Cloudy
6:00 PM 51 °F - 40 °F 57% 29.86 in 11 mi West 3.5 mph - -   Mostly Cloudy
6:00 PM 50.0 °F - 41.0 °F 71% 29.86 in 6.2 mi West 3.5 mph - N/A   Mostly Cloudy
6:30 PM 50.0 °F - 39.2 °F 66% 29.86 in 6.2 mi Calm Calm - N/A   Mostly Cloudy
7:00 PM 49 °F - 40 °F 62% 29.86 in 12 mi WNW 2.3 mph - -   Mostly Cloudy
7:00 PM 50.0 °F - 39.2 °F 66% 29.86 in 6.2 mi Variable 2.3 mph - N/A   Mostly Cloudy
7:30 PM 50.0 °F - 41.0 °F 71% 29.86 in 6.2 mi Variable 3.5 mph - N/A   Mostly Cloudy
8:00 PM 47 °F - 40 °F 67% 29.86 in 12 mi East 2.3 mph - -   Mostly Cloudy
8:30 PM 46.4 °F - 39.2 °F 76% 29.86 in 6.2 mi Variable 2.3 mph - N/A   Mostly Cloudy
9:00 PM 47 °F - 40 °F 67% 29.86 in 12 mi NW 4.6 mph - -   Scattered Clouds
9:00 PM 46.4 °F 44.3 °F 39.2 °F 76% 29.83 in 6.2 mi NW 4.6 mph - N/A   Partly Cloudy
9:30 PM 44.6 °F 43.1 °F 39.2 °F 81% 29.83 in 6.2 mi Variable 3.5 mph - N/A   Partly Cloudy
10:00 PM 46 °F - 40 °F 72% 29.84 in 12 mi West 4.6 mph - -   Scattered Clouds
10:00 PM 44.6 °F 42.2 °F 39.2 °F 81% 29.83 in 6.2 mi West 4.6 mph - N/A   Partly Cloudy
10:30 PM 48.2 °F - 41.0 °F 76% 29.83 in 6.2 mi Variable 3.5 mph - N/A   Mostly Cloudy
11:00 PM 51 °F - 40 °F 57% 29.83 in 12 mi WSW 3.5 mph - -   Overcast
11:00 PM 50.0 °F - 41.0 °F 71% 29.80 in 6.2 mi Variable 3.5 mph - N/A   Overcast
11:30 PM 53.6 °F - 41.0 °F 62% 29.80 in 6.2 mi WNW 9.2 mph - N/A   Overcast